Temperature
22 22 21 21 23 26 27 28 30 29 29 29 28 28 27 26 25 23 22 21 21 20 20 20 20 20 19 19 19 19 19 19 19 19 19 18 18 18 18 18 18 18 18 18 18 18 18 18 18
22 21 22 23 25 26 27 29 29 29 29 29 28 27 27 25 24 23 22 21 21 20 20 20 20 20 19 19 19 19 19 19 19 19 19 18 18 18 18 18 18 18 18 18 18 18 18 18 18
22 22 24 25 27 27 28 29 30 30 29 29 28 27 26 25 24 22 22 22 21 20 20 20 20 20 20 19 19 19 19 19 19 19 19 18 18 18 18 18 18 18 18 18 18 18 18 18 18
22 24 25 27 28 29 29 30 31 30 30 29 28 26 25 24 23 22 22 22 21 20 20 20 20 20 20 19 19 19 19 19 19 19 18 18 18 18 18 18 18 18 18 18 18 18 18 18 18
24 26 27 28 29 30 30 31 31 30 29 28 27 26 24 24 23 23 22 22 21 20 20 21 20 20 20 20 19 19 19 19 19 19 18 18 18 18 18 18 18 18 18 18 18 18 18 18 18
26 27 27 28 29 30 31 31 30 30 29 28 27 26 24 24 23 23 23 22 22 21 20 21 20 20 20 20 20 19 19 19 19 19 18 18 18 18 18 19 18 18 18 18 18 18 18 18 18
28 28 28 29 30 30 31 31 31 30 29 28 27 26 24 24 23 23 23 22 22 21 21 20 20 20 20 20 20 19 19 19 19 19 19 18 18 18 18 18 18 18 18 18 18 18 18 19 19
29 29 29 29 30 30 31 31 30 30 29 28 28 26 25 24 23 23 23 22 22 21 21 20 20 20 20 20 20 19 19 19 19 19 19 19 18 18 18 18 18 18 18 18 18 19 19 19 19
29 29 28 29 30 29 31 31 30 30 29 28 28 26 25 24 24 23 23 22 22 21 21 20 20 20 20 20 20 19 19 19 19 18 18 18 18 18 18 18 18 18 18 18 19 19 19 19 19
30 29 30 31 31 30 31 31 30 30 29 28 27 26 25 24 24 23 23 22 22 22 21 21 21 20 20 20 20 19 19 19 19 19 18 18 18 18 18 18 18 18 18 18 19 19 19 19 19
31 30 31 32 31 31 31 30 30 30 29 28 27 26 25 24 24 24 23 23 22 22 21 21 21 20 20 20 20 19 19 19 19 19 19 19 19 19 19 19 19 19 18 18 18 18 18 18 18
31 32 32 31 31 32 31 30 30 30 29 28 27 26 25 25 24 24 24 23 22 21 21 21 21 21 20 20 20 19 19 19 19 19 19 19 19 19 19 19 19 19 18 18 18 18 18 18 18
32 32 32 31 31 31 31 31 30 29 28 28 27 26 25 25 24 24 23 23 22 21 21 21 20 20 20 20 20 19 19 19 19 19 19 19 19 19 18 19 19 19 18 18 18 18 18 18 18
33 33 32 32 32 32 31 31 30 29 28 28 27 26 25 25 24 24 23 22 22 21 20 20 20 20 20 19 19 19 19 19 19 19 19 19 19 19 18 19 19 18 18 18 18 18 18 18 18
32 32 32 32 32 32 31 30 30 29 29 28 27 26 26 25 24 24 23 22 21 21 20 20 20 19 19 19 19 19 19 19 19 19 19 19 18 18 18 18 18 18 18 18 18 18 18 18 18
32 31 30 31 32 32 31 28 30 29 29 28 28 27 26 25 24 24 23 22 21 21 20 20 20 19 19 19 19 19 19 19 19 19 19 18 18 18 18 18 18 18 18 18 18 18 18 18 18
30 30 31 31 33 33 31 29 30 29 29 29 28 27 26 25 24 24 23 22 21 21 20 20 20 19 19 19 19 19 19 19 19 19 18 18 18 18 18 18 18 18 18 18 18 18 18 18 18
31 31 32 32 32 32 31 30 30 30 30 29 27 27 26 25 24 24 23 22 21 20 20 20 19 19 19 19 19 19 19 19 19 19 18 18 18 18 18 18 18 18 18 18 18 18 18 18 18
33 32 32 32 33 32 31 31 31 30 29 29 28 27 26 25 24 23 23 22 21 20 20 19 19 19 19 19 19 18 18 18 18 18 18 18 18 18 18 18 18 18 18 18 18 18 18 18 18
33 32 32 32 33 32 32 31 31 31 30 29 28 27 26 25 24 23 23 22 21 20 20 19 19 19 19 19 18 18 18 18 18 18 18 18 18 18 18 18 18 18 18 18 18 18 18 18 18
33 32 32 32 32 33 32 31 31 31 30 30 29 28 27 26 25 24 23 22 21 20 20 19 19 19 19 18 18 18 18 18 18 18 18 18 18 18 18 18 18 17 17 17 18 18 18 18 18
32 33 33 33 32 31 31 29 30 30 30 30 29 28 27 26 25 24 23 22 21 21 20 19 19 19 19 18 18 18 18 18 18 18 18 18 18 17 18 18 18 17 17 17 17 17 17 18 18
33 34 33 33 32 31 31 30 29 30 29 29 29 28 28 26 25 24 23 22 22 21 20 19 19 19 19 18 18 18 18 18 18 18 18 18 17 17 18 17 17 17 17 17 17 17 17 17 17
34 33 33 32 32 30 31 30 29 30 29 29 28 28 27 26 25 24 23 23 22 21 20 20 19 19 18 18 18 18 18 18 18 18 18 17 17 17 18 17 17 17 17 17 17 17 17 17 17
33 32 30 30 30 30 31 31 29 30 30 29 28 27 27 26 25 24 23 22 22 21 21 20 19 19 18 18 18 18 18 18 18 18 17 17 17 17 17 17 17 17 17 17 17 17 17 17 17
33 32 30 29 29 30 31 30 29 31 30 29 28 27 26 26 25 24 24 23 22 21 21 20 19 19 18 18 18 18 18 17 17 18 17 17 17 17 17 17 17 17 17 17 17 17 17 17 17
32 32 33 31 30 30 30 29 29 30 29 29 28 28 27 26 25 24 23 23 22 21 20 20 19 19 18 18 18 18 18 18 17 17 17 17 17 17 17 17 17 17 17 17 17 17 17 17 17
33 33 32 31 29 29 29 29 28 28 28 28 28 27 27 26 25 24 23 23 22 21 20 20 19 19 18 18 18 17 17 17 17 17 17 17 17 17 17 17 17 17 17 17 17 16 16 16 16
32 32 31 31 31 29 28 29 30 29 29 28 28 27 26 26 25 24 23 22 22 21 21 20 19 19 18 18 18 17 17 17 17 17 17 17 17 17 17 16 16 16 16 16 16 16 16 16 16
33 32 31 30 29 30 29 28 30 30 29 28 28 27 26 25 25 24 23 22 22 21 20 19 19 18 18 18 18 17 17 17 17 17 16 16 16 16 16 16 16 16 16 16 16 16 16 16 16
Wind_Speed
9 11 9 5 4 2 8 9 11 13 13 13 15 14 16 15 10 9 8 12 13 13 13 13 13 13 13 14 13 13 13 12 12 11 11 11 10 10 9 9 9 9 9 9 8 8 7 7 6
9 10 7 4 3 4 9 9 12 14 12 13 15 16 17 16 14 11 10 11 13 14 13 13 13 13 13 13 13 13 13 12 12 12 11 10 10 9 9 8 8 8 7 7 7 7 6 6 6
11 11 5 3 3 8 9 9 12 12 11 12 14 15 12 12 12 10 10 12 13 14 14 14 13 13 13 12 13 12 13 12 12 11 11 10 9 9 8 8 7 7 6 6 6 6 5 5 6
7 6 4 1 7 10 10 9 11 12 12 12 12 12 12 11 11 13 12 11 14 14 15 14 13 13 12 12 13 12 12 12 11 11 10 9 8 8 8 7 7 6 5 5 5 5 4 5 5
8 4 2 4 9 11 10 10 11 12 13 14 16 15 14 13 14 14 12 11 13 14 15 15 14 14 13 13 13 12 11 11 11 10 9 9 8 8 7 7 6 6 5 4 4 4 4 4 5
4 3 1 6 10 11 10 10 12 13 12 14 14 15 12 12 12 12 12 11 12 13 15 15 15 15 14 13 13 13 11 11 11 10 9 8 7 7 7 6 5 5 4 3 4 4 3 4 5
5 2 3 6 9 10 10 10 11 11 11 11 12 13 11 11 11 11 11 11 12 12 13 13 14 14 14 14 13 12 12 11 10 9 8 7 6 6 6 6 5 4 3 3 3 3 3 4 5
4 2 4 5 9 9 10 11 10 12 11 10 9 10 10 11 11 11 11 10 11 11 10 10 12 13 13 13 13 12 12 11 9 8 7 6 5 5 6 6 5 3 3 2 2 2 3 5 6
3 1 3 6 8 7 8 9 10 11 11 11 11 13 14 14 13 11 10 9 9 9 9 8 9 10 10 11 14 12 11 10 8 6 6 5 4 4 5 5 6 4 3 3 2 3 4 6 8
2 3 6 6 7 8 6 8 8 9 10 11 13 15 15 13 12 11 10 9 9 8 8 7 8 7 8 8 10 8 8 8 7 6 5 3 2 2 4 6 6 5 4 4 5 5 5 7 6
4 4 5 6 6 6 8 7 8 9 9 10 12 13 13 12 10 9 9 9 8 7 6 7 7 6 6 5 6 5 5 6 6 5 4 3 3 2 3 3 4 5 5 4 4 5 5 3 2
4 4 5 5 4 6 8 7 8 9 10 11 11 12 12 10 9 8 8 9 9 8 7 6 6 5 5 4 3 4 4 4 5 5 3 3 2 1 2 1 1 2 2 2 2 2 1 1 1
1 3 4 3 3 5 7 7 8 9 10 11 13 12 11 9 8 7 8 8 8 8 7 6 7 6 4 3 1 3 3 3 5 5 4 2 1 1 1 1 1 0 0 0 1 1 1 1 1
1 2 3 3 4 4 6 6 7 9 10 10 11 11 10 9 9 8 8 7 8 7 6 6 6 6 3 2 1 1 2 3 4 4 4 3 1 2 0 1 1 1 0 1 0 1 0 0 0
3 2 2 2 4 3 4 3 6 8 10 10 11 10 10 9 8 9 8 7 8 7 6 5 6 6 4 2 1 1 2 3 3 4 4 3 2 2 1 1 1 1 1 1 0 1 1 1 1
6 5 3 4 5 5 4 3 7 8 9 10 9 10 9 8 8 8 8 7 8 7 6 5 4 5 4 2 1 0 1 2 2 3 4 3 2 1 1 1 1 1 1 1 1 1 0 1 0
8 6 4 5 4 4 3 4 7 8 9 9 9 9 9 9 8 8 8 8 8 7 6 5 3 5 4 2 1 0 0 0 1 2 2 3 2 2 1 1 0 1 1 0 1 1 1 0 0
5 4 3 2 3 3 2 5 8 8 7 8 8 9 8 9 7 7 7 8 8 8 6 5 3 4 4 3 1 0 0 0 1 1 2 3 2 2 2 1 1 1 1 1 1 1 1 1 2
6 6 4 1 2 3 4 5 7 7 7 9 8 9 8 8 9 8 7 8 9 8 7 5 4 4 3 2 2 2 2 2 2 2 2 2 2 2 2 1 1 1 1 1 1 0 1 1 1
8 7 4 3 3 4 5 5 6 8 9 9 10 9 9 9 9 9 8 8 8 8 7 6 5 4 3 2 2 1 1 1 1 1 2 2 2 2 2 1 1 1 1 1 1 1 1 2 1
8 7 5 5 6 7 6 6 6 8 7 8 8 9 10 11 11 10 9 8 8 8 7 6 6 5 4 3 2 1 1 1 1 2 2 2 2 2 2 1 1 2 1 1 2 2 2 2 2
8 6 6 7 8 7 6 4 5 7 6 6 7 8 9 10 11 11 10 9 8 7 8 6 6 5 4 3 3 3 2 2 2 2 2 3 3 2 2 1 1 1 1 1 3 2 2 2 3
8 8 9 9 10 9 7 4 4 8 7 6 5 7 9 9 10 10 10 9 8 8 7 6 6 6 5 4 2 2 2 2 1 1 2 3 2 2 2 1 1 1 1 2 2 2 2 2 3
8 9 10 11 10 10 8 6 4 5 8 8 5 5 7 9 9 9 8 8 7 7 6 6 7 5 4 4 3 2 2 2 2 1 2 2 2 2 2 2 1 1 2 2 2 2 2 2 3
9 9 7 8 8 8 7 6 3 6 7 8 8 6 7 7 8 9 9 8 7 6 6 6 7 5 4 4 2 2 2 3 2 2 2 2 2 2 2 1 1 1 2 2 2 2 2 2 3
9 10 8 8 9 8 4 1 5 7 8 8 9 9 8 8 8 8 8 8 7 6 6 6 7 6 5 4 3 2 2 2 2 2 2 2 1 1 2 1 1 1 2 2 2 2 2 2 3
9 10 11 10 11 10 4 3 5 6 6 6 7 8 7 6 6 7 7 6 7 6 6 6 7 6 6 5 4 3 2 2 2 2 2 1 0 1 2 1 1 1 1 2 1 2 2 1 2
10 10 9 9 7 10 7 4 4 6 5 5 7 7 7 6 6 6 6 6 6 7 6 6 7 5 5 5 4 3 3 2 1 1 2 1 0 1 1 1 1 0 1 1 1 2 1 1 1
9 10 8 9 10 9 8 1 4 6 5 6 6 6 7 6 5 5 5 6 5 5 6 6 5 5 4 4 4 3 3 3 3 2 1 1 1 1 1 1 1 1 1 1 1 2 1 1 2
10 10 9 8 8 10 9 2 1 4 4 4 6 6 5 5 5 5 4 4 3 4 4 4 4 4 4 3 4 3 3 3 2 2 1 1 2 2 1 1 1 2 1 1 2 3 2 2 2
Wind_Direction
203 217 220 238 254 215 63 63 70 70 64 60 62 67 63 58 63 86 105 103 108 109 108 104 98 99 102 104 105 104 104 103 103 103 104 106 108 110 109 110 112 116 121 125 125 126 127 129 135
224 226 227 238 252 73 67 67 73 73 74 76 70 71 70 69 79 96 102 110 111 111 110 105 104 102 102 104 105 106 104 101 101 99 99 101 104 107 107 108 110 113 120 130 135 137 133 136 145
248 245 248 235 68 72 75 75 83 86 88 85 76 64 62 75 85 102 110 113 108 107 108 109 109 107 105 107 107 107 105 102 102 100 99 100 101 105 104 107 110 113 119 131 139 143 145 149 157
238 234 235 189 75 76 84 85 88 87 81 79 81 78 73 76 96 108 112 113 111 111 110 113 115 113 111 112 111 111 108 106 106 105 102 103 105 105 104 107 110 116 121 129 138 141 149 157 168
237 256 243 77 81 78 80 90 87 85 82 80 83 91 88 87 99 109 112 110 109 112 113 117 118 120 119 117 115 113 111 112 111 108 108 108 109 108 106 108 111 117 119 127 132 138 151 164 178
255 265 351 82 85 87 84 86 87 85 90 95 94 95 97 102 102 107 110 106 108 114 116 120 122 124 124 122 118 116 116 115 115 114 114 114 113 116 120 112 112 114 117 130 151 153 160 177 188
245 288 58 86 89 83 83 81 87 91 86 88 99 101 111 111 113 112 110 107 107 108 117 127 131 129 128 127 125 124 123 123 122 123 123 122 124 127 129 127 129 125 120 119 145 157 184 186 202
267 338 53 75 86 83 87 84 83 89 84 95 102 105 121 125 123 116 111 105 105 110 118 127 132 136 138 136 136 135 134 133 133 135 136 136 142 147 147 144 143 139 141 143 147 186 208 209 218
240 13 56 75 89 90 87 89 89 91 88 81 85 105 122 131 128 124 117 115 110 110 116 128 133 134 134 132 137 144 144 142 144 147 155 163 165 159 160 149 152 156 162 183 213 227 240 232 227
117 60 71 80 101 113 98 97 100 98 94 90 92 107 122 131 134 133 129 127 119 113 118 119 116 122 129 124 132 144 142 141 144 134 144 162 161 162 143 146 165 179 190 209 225 236 248 247 238
94 93 83 84 101 109 99 93 98 100 102 105 116 125 130 134 138 136 132 126 124 119 105 105 105 106 104 109 129 131 134 139 135 129 142 145 142 142 131 147 178 199 209 225 213 223 239 240 230
88 86 91 83 95 102 102 99 91 92 100 113 122 130 134 142 144 141 132 128 127 122 116 111 97 85 86 99 120 135 136 135 132 133 135 135 144 136 125 144 180 196 209 209 239 229 229 340 1
92 109 107 106 93 103 108 107 101 98 105 118 129 134 140 141 139 128 122 123 122 124 125 113 102 89 79 83 133 126 124 136 130 136 136 133 131 104 96 122 102 50 100 200 300 316 358 22 349
128 116 125 136 118 118 110 115 113 116 123 129 132 136 138 139 137 128 124 125 122 121 123 120 121 116 115 114 63 105 137 125 130 140 134 146 127 103 105 134 82 33 333 316 276 276 306 299 280
256 211 160 187 162 157 126 110 120 135 138 137 139 139 138 139 136 135 135 134 130 128 128 131 138 131 137 148 190 167 153 140 156 139 129 146 148 144 192 204 149 226 232 274 282 285 275 192 178
270 238 206 211 202 172 184 160 148 151 147 143 145 143 142 141 142 141 143 139 137 137 135 144 151 140 142 156 208 173 148 131 141 141 143 155 159 188 242 229 174 213 204 194 194 223 195 61 10
252 244 225 203 198 179 188 155 159 163 159 151 151 150 149 149 151 147 151 148 141 137 137 138 136 133 141 150 142 117 263 163 158 154 151 154 186 205 247 283 306 262 269 255 271 97 115 197 325
264 253 243 193 177 195 187 166 172 177 165 154 155 156 157 157 158 153 152 148 142 139 137 137 141 127 133 136 142 189 264 243 190 146 140 144 200 222 246 242 293 296 302 348 20 14 325 249 247
289 294 308 306 204 233 223 195 179 171 175 166 167 166 166 164 161 155 153 150 148 144 142 145 148 133 136 148 169 181 206 211 194 167 146 163 212 228 247 303 279 284 295 274 260 222 280 264 239
280 282 273 259 253 253 240 214 180 177 190 177 175 174 170 167 162 158 157 153 149 144 148 147 147 147 155 166 183 186 195 215 176 135 141 177 215 238 226 228 278 248 250 266 287 289 270 259 234
276 284 284 273 274 256 250 231 197 176 182 172 177 177 173 171 165 161 161 161 156 154 155 163 157 154 165 171 168 193 192 214 197 180 168 189 211 222 269 241 278 277 240 226 254 268 256 264 264
277 283 284 267 259 265 244 257 204 175 183 180 180 180 173 171 166 164 164 166 168 164 163 153 155 155 165 179 185 196 194 213 222 194 174 188 204 209 206 229 249 283 290 267 258 248 284 273 272
287 294 282 275 270 273 256 246 213 179 182 188 198 176 164 159 162 162 166 170 171 166 164 157 153 159 166 176 193 215 211 221 227 195 176 188 192 201 198 188 226 253 268 265 288 311 287 292 287
278 282 276 266 261 262 260 263 220 185 174 166 178 161 152 152 155 156 166 161 162 157 154 153 149 155 162 173 189 210 233 237 247 213 182 198 193 206 202 186 208 248 266 267 271 277 276 272 281
254 264 273 267 256 247 240 246 166 135 135 130 146 143 140 144 152 156 157 155 160 156 155 152 148 157 162 169 183 208 236 231 245 253 207 209 205 192 185 192 193 258 274 275 275 265 273 269 277
267 267 270 283 289 290 257 240 123 109 116 125 133 133 140 151 156 155 155 157 154 156 158 153 154 163 169 173 189 197 221 230 235 254 264 210 246 144 143 167 179 225 255 266 265 265 256 265 276
266 270 278 277 278 282 258 190 144 109 113 124 128 130 139 144 144 147 151 152 158 160 155 152 149 165 172 177 185 186 191 231 255 227 247 272 347 135 126 141 158 225 259 289 301 297 304 325 295
252 276 285 279 278 283 283 235 164 155 153 148 141 139 134 137 138 138 143 146 160 167 158 155 156 164 173 180 192 193 198 217 248 248 226 234 216 57 105 137 173 218 261 313 302 310 329 343 318
248 257 269 281 286 288 285 264 149 148 147 146 140 138 139 143 137 130 133 137 152 150 151 152 150 161 172 183 182 191 189 211 215 228 258 238 260 195 189 195 254 258 236 249 276 289 282 287 292
260 262 261 265 273 282 287 284 91 118 124 141 135 127 129 136 135 131 124 128 126 136 142 148 157 171 174 172 181 189 178 196 214 218 230 233 223 223 207 211 230 258 244 234 251 264 272 264 273
Height
1482 1483 1484 1486 1485 1481 1478 1471 1465 1466 1468 1470 1471 1473 1477 1481 1487 1499 1500 1499 1499 1498 1498 1499 1500 1500 1501 1502 1503 1505 1506 1507 1508 1510 1511 1512 1514 1515 1516 1517 1518 1519 1520 1521 1522 1523 1524 1526 1527
1482 1484 1486 1485 1484 1485 1482 1470 1469 1469 1471 1473 1475 1478 1481 1487 1492 1497 1499 1500 1501 1500 1500 1501 1502 1503 1504 1505 1506 1507 1508 1509 1510 1512 1513 1514 1515 1516 1517 1518 1519 1520 1521 1522 1523 1524 1524 1525 1526
1482 1485 1486 1480 1478 1482 1481 1471 1469 1471 1473 1475 1478 1482 1487 1492 1496 1498 1501 1502 1502 1502 1502 1503 1503 1504 1505 1507 1508 1509 1510 1511 1512 1513 1514 1515 1516 1517 1518 1519 1520 1521 1521 1522 1523 1523 1524 1525 1526
1483 1484 1482 1477 1477 1472 1470 1470 1469 1471 1474 1476 1480 1486 1493 1496 1498 1500 1502 1503 1504 1504 1504 1504 1504 1505 1507 1508 1510 1511 1512 1513 1514 1515 1516 1517 1518 1519 1519 1520 1521 1521 1522 1522 1523 1523 1524 1524 1525
1484 1482 1478 1476 1473 1470 1468 1469 1470 1473 1476 1480 1484 1490 1496 1499 1501 1502 1503 1504 1505 1505 1505 1505 1506 1506 1508 1510 1511 1512 1513 1514 1515 1516 1517 1518 1519 1520 1520 1521 1522 1522 1522 1522 1522 1523 1523 1524 1525
1483 1479 1482 1482 1475 1470 1469 1471 1472 1476 1478 1482 1487 1492 1499 1502 1502 1504 1505 1506 1507 1507 1507 1507 1507 1508 1510 1511 1513 1514 1515 1516 1517 1518 1519 1520 1520 1521 1522 1522 1523 1523 1523 1522 1521 1522 1523 1524 1525
1480 1477 1480 1478 1476 1474 1472 1473 1474 1477 1480 1483 1487 1493 1499 1503 1504 1505 1506 1507 1508 1509 1509 1509 1509 1510 1512 1513 1515 1516 1517 1518 1519 1520 1521 1521 1522 1522 1523 1523 1524 1524 1523 1522 1521 1523 1524 1525 1526
1476 1476 1479 1478 1477 1478 1473 1475 1476 1479 1482 1486 1488 1493 1499 1503 1505 1506 1508 1509 1510 1511 1511 1512 1512 1513 1514 1515 1516 1518 1519 1519 1520 1521 1522 1523 1523 1524 1524 1525 1525 1525 1525 1524 1524 1525 1525 1526 1527
1475 1479 1483 1478 1479 1478 1475 1477 1479 1481 1484 1487 1489 1493 1499 1503 1505 1507 1509 1511 1512 1513 1514 1514 1515 1516 1517 1518 1518 1519 1520 1521 1522 1523 1524 1524 1525 1525 1525 1526 1526 1526 1526 1526 1526 1526 1526 1527 1528
1473 1480 1479 1473 1474 1476 1476 1478 1479 1482 1486 1489 1493 1497 1500 1503 1506 1508 1510 1511 1513 1514 1515 1516 1517 1518 1519 1520 1520 1520 1522 1522 1523 1524 1525 1525 1526 1526 1527 1527 1527 1527 1528 1527 1527 1527 1527 1527 1528
1472 1476 1472 1472 1473 1475 1476 1479 1480 1482 1487 1491 1495 1499 1501 1504 1506 1508 1510 1512 1514 1515 1516 1517 1518 1519 1520 1520 1521 1522 1523 1523 1524 1525 1526 1526 1526 1527 1528 1528 1528 1528 1528 1528 1528 1528 1527 1528 1528
1473 1472 1473 1473 1474 1475 1476 1480 1482 1484 1488 1492 1496 1499 1502 1504 1506 1508 1510 1512 1514 1516 1517 1518 1518 1519 1520 1521 1522 1523 1524 1524 1525 1525 1526 1527 1527 1528 1528 1528 1528 1528 1529 1529 1529 1529 1529 1529 1529
1473 1473 1474 1474 1475 1476 1477 1480 1483 1487 1490 1493 1496 1500 1502 1505 1507 1509 1511 1513 1514 1516 1517 1518 1518 1519 1520 1521 1522 1524 1524 1525 1526 1526 1526 1527 1528 1528 1529 1529 1529 1529 1529 1529 1529 1529 1530 1529 1529
1472 1471 1473 1474 1475 1476 1477 1480 1483 1487 1490 1493 1497 1499 1502 1505 1507 1509 1511 1513 1514 1515 1517 1518 1518 1519 1520 1521 1522 1524 1525 1525 1526 1526 1527 1527 1527 1528 1529 1529 1529 1529 1529 1529 1530 1530 1530 1530 1530
1472 1472 1473 1474 1474 1475 1477 1482 1484 1486 1489 1493 1496 1499 1502 1505 1507 1509 1511 1513 1514 1515 1516 1517 1518 1519 1520 1521 1522 1523 1524 1525 1525 1526 1526 1527 1527 1528 1528 1529 1529 1529 1530 1530 1530 1530 1530 1530 1530
1473 1475 1481 1474 1471 1473 1479 1490 1484 1486 1488 1492 1495 1498 1502 1504 1507 1509 1511 1512 1513 1515 1516 1517 1518 1518 1519 1521 1522 1523 1524 1524 1525 1525 1525 1526 1526 1527 1527 1528 1529 1529 1529 1530 1530 1530 1530 1530 1530
1478 1482 1481 1474 1469 1470 1476 1485 1482 1484 1486 1490 1494 1497 1500 1504 1506 1508 1510 1512 1513 1514 1515 1516 1517 1518 1519 1520 1521 1522 1523 1524 1524 1524 1525 1525 1526 1526 1527 1527 1528 1528 1529 1529 1529 1529 1529 1529 1529
1479 1476 1473 1473 1468 1469 1475 1480 1479 1481 1484 1488 1492 1496 1499 1502 1505 1507 1509 1510 1512 1513 1514 1515 1517 1517 1518 1519 1520 1521 1522 1523 1524 1524 1524 1524 1525 1525 1526 1526 1526 1527 1527 1527 1528 1528 1528 1528 1528
1466 1470 1473 1469 1465 1469 1473 1475 1475 1478 1481 1486 1490 1493 1496 1500 1503 1505 1508 1509 1511 1512 1513 1514 1516 1516 1517 1518 1519 1520 1521 1522 1523 1523 1523 1523 1524 1524 1525 1525 1525 1525 1526 1526 1526 1527 1527 1527 1528
1466 1470 1473 1469 1464 1467 1471 1472 1470 1474 1479 1482 1486 1490 1493 1497 1501 1504 1506 1508 1509 1511 1512 1513 1514 1515 1516 1517 1518 1519 1520 1521 1522 1522 1522 1522 1522 1523 1524 1524 1524 1524 1524 1525 1525 1525 1525 1526 1527
1467 1468 1469 1470 1466 1464 1470 1475 1472 1472 1475 1479 1483 1486 1490 1494 1498 1501 1504 1506 1508 1509 1510 1512 1513 1514 1515 1516 1517 1518 1519 1520 1520 1520 1520 1521 1521 1522 1522 1522 1522 1523 1523 1523 1523 1524 1524 1525 1525
1470 1461 1462 1465 1471 1474 1471 1490 1477 1473 1475 1477 1480 1483 1486 1491 1495 1499 1502 1504 1507 1508 1510 1510 1511 1512 1514 1515 1516 1516 1517 1518 1518 1519 1519 1519 1520 1520 1521 1521 1521 1521 1522 1522 1522 1522 1522 1523 1524
1463 1458 1460 1462 1468 1472 1470 1482 1482 1472 1477 1478 1480 1481 1484 1489 1493 1496 1499 1502 1505 1507 1508 1509 1510 1511 1512 1513 1514 1515 1516 1516 1517 1517 1517 1518 1518 1519 1519 1519 1519 1519 1520 1520 1520 1520 1521 1521 1521
1458 1460 1461 1461 1467 1484 1473 1480 1484 1471 1473 1476 1478 1480 1483 1487 1491 1495 1498 1500 1503 1505 1507 1508 1508 1509 1511 1511 1512 1513 1514 1514 1515 1515 1516 1516 1517 1517 1517 1517 1517 1518 1518 1518 1518 1518 1519 1519 1519
1458 1470 1484 1487 1486 1484 1465 1472 1477 1466 1466 1471 1476 1480 1483 1486 1490 1493 1496 1499 1501 1503 1505 1506 1507 1508 1509 1509 1510 1511 1512 1513 1513 1514 1514 1514 1515 1515 1515 1515 1515 1515 1515 1516 1516 1516 1516 1517 1517
1460 1464 1486 1499 1496 1480 1467 1473 1472 1463 1467 1470 1474 1478 1482 1486 1488 1492 1495 1497 1499 1501 1503 1504 1505 1506 1507 1507 1508 1509 1510 1511 1511 1512 1513 1513 1513 1513 1513 1513 1513 1513 1514 1514 1514 1514 1514 1514 1514
1461 1462 1457 1470 1477 1483 1476 1473 1470 1466 1469 1471 1474 1477 1481 1485 1487 1490 1493 1495 1498 1500 1501 1503 1503 1504 1505 1506 1507 1507 1508 1509 1509 1510 1511 1511 1511 1512 1511 1511 1511 1511 1511 1511 1511 1512 1512 1512 1511
1454 1456 1461 1471 1488 1493 1481 1477 1477 1473 1472 1471 1473 1476 1480 1484 1487 1489 1492 1494 1497 1498 1500 1502 1502 1502 1503 1504 1505 1506 1506 1507 1507 1508 1508 1508 1509 1509 1509 1509 1509 1509 1509 1509 1509 1509 1509 1509 1509
1455 1459 1462 1466 1468 1484 1491 1483 1463 1467 1468 1470 1473 1476 1480 1484 1486 1489 1491 1493 1495 1497 1499 1500 1500 1501 1502 1502 1503 1503 1503 1504 1505 1505 1506 1506 1507 1507 1507 1507 1507 1507 1507 1507 1507 1507 1507 1507 1507
1450 1454 1460 1474 1477 1472 1480 1485 1460 1463 1467 1470 1472 1477 1480 1483 1486 1488 1491 1493 1495 1496 1497 1498 1499 1500 1500 1500 1501 1501 1502 1502 1503 1503 1503 1504 1504 1504 1505 1505 1505 1505 1505 1505 1505 1504 1505 1504 1504